    Orbital elements:
    2007 YU56                                                Earth MOID = 0.0498 AU
    Epoch 2019 Apr. 27.0 TT = JDT 2458600.5                 MPC
    M  33.40644              (2000.0)            P               Q
    n   0.26785868     Peri.  163.19511     +0.05901906     -0.97292290
    a   2.3834108      Node   282.99033     +0.88748589     +0.15362910
    e   0.5716998      Incl.   13.25803     +0.45703999     -0.17268218
    P   3.68           H   22.2           G   0.15           U   1
    Residuals in seconds of arc
    071231 703  0.4+  0.3+    080114 291  0.4-  0.2+    181229 B49  0.2+  0.7-
    071231 703  0.1-  0.2+    080114 291  0.2-  0.0     181229 B49  0.4+  0.1-
    071231 703  0.9+  0.9-    080119 448  1.3-  0.0     181229 B49  0.2+  0.2-
    071231 703  0.6+  0.4+    080119 448 (2.2-  0.1-)   181229 J95  0.2-  0.0
    071231 703  0.3-  1.0+    080119 448  0.2-  0.8-    181229 J95  0.1-  0.0
    071231 703  0.6+  0.9-    181228 T05  0.3-  0.3+    181229 587  0.2-  0.3-
    071231 703  1.1-  0.5+    181228 T05  0.5+  0.3-    181229 587  0.3-  0.4-
    071231 703  0.8+  0.3+    181228 T05  0.1-  0.9-    181229 587  0.1+  0.0
    071231 703  0.2-  0.3-    181228 T05  0.4-  0.3-    181229 204  0.0   0.1+
    071231 703  0.2-  0.4+    181228 K38  0.0   0.2-    181229 204  0.0   0.0
    071231 703  0.1-  0.4+    181228 L01  0.3-  0.0     181229 204  0.1-  0.1+
    071231 703  0.1-  0.8+    181228 L01  0.0   0.1-    181229 204  0.0   0.0
    080101 A13  1.3-  0.7+    181228 L01  0.2+  0.3+    181229 204  0.1-  0.1-
    080101 A13 (0.1+  1.6-)   181228 L01  0.1+  0.1+    181229 Z99  0.7+  0.0
    080101 A13 (0.1+  1.7-)   181228 L01  0.2+  0.0     181229 Z99  1.1+  0.3+
    080101 A13  0.4-  1.0-    181228 K38  0.2+  0.1+    181229 Z99  0.8+  0.0
    080101 A13  0.5-  0.8-    181228 K38  0.0   0.2-    181229 C77  0.0   0.1-
    080101 G96  0.7-  0.4-    181228 K88  0.4-  0.2+    181229 C77  0.1+  0.3+
    080101 G96  0.2-  0.5-    181228 K88  0.4-  0.3+    181229 C77  0.1+  0.3+
    080101 G96  0.8-  0.6-    181228 104  0.1-  0.2+    181230 H36  0.0   0.5+
    080101 G96  0.5-  0.5-    181228 104  0.2+  0.2+    181230 H36  0.0   0.3+
    080102 595  0.2+  0.1+    181228 104  0.1+  0.0     181230 H36  0.1+  0.2+
    080102 595  0.1-  0.7+    181229 P93  0.4+  0.4-    181230 H36  0.0   0.1+
    080102 595  0.4-  1.1+    181229 P93  0.3-  0.4-    181230 160  0.1+  0.4+
    080106 J95  0.8+  0.3+    181229 P93  0.2+  0.3-    181230 160  0.3-  0.2+
    080106 J95  0.3+  0.3-    181229 P93  0.3+  0.0     181230 160  0.0   0.3+
    080106 J95  0.2+  0.5-    181229 595  0.4-  0.1-    181230 160  0.1-  0.3+
    080110 291  0.0   0.1+    181229 595  0.2-  0.2+    181230 160  0.0   0.5+
    080110 291  0.0   0.2+    181229 595  0.2-  0.1-    181230 160  0.1-  0.3+
    080110 291  0.1+  0.4+    181229 J95  0.0   0.1-
    080114 291  0.4-  0.1+    181229 J95  0.0   0.2-
    
    Ephemeris:
    2007 YU56                a,e,i = 2.38, 0.57, 13                  q = 1.0208
    Date    TT    R. A. (2000) Decl.     Delta      r     Elong.  Phase     V
    2018 11 30    22 18 55.8 +42 55 28   0.2260  1.0632   103.8    64.3    21.4
    ...
    2018 12 15    23 05 41.3 +43 43 12   0.1508  1.0263   102.0    69.8    20.6
    ...
    2018 12 23    00 07 18.3 +43 30 47   0.1110  1.0207   106.5    67.5    19.8
    ...
    2018 12 29    01 29 37.4 +40 11 47   0.08546 1.0234   115.8    59.9    19.1
    2018 12 30    01 46 58.6 +38 59 12   0.08202 1.0244   118.0    57.9    18.9
    2018 12 31    02 05 11.1 +37 30 13   0.07891 1.0256   120.5    55.7    18.8
    ...
    2019 01 06    03 59 39.4 +22 27 52   0.07007 1.0359   137.3    40.1    18.1
    ...
    2019 01 14    05 51 39.4 -00 36 37   0.08888 1.0580   145.5    31.8    18.4
    ...
    2019 01 29    07 19 56.0 -16 22 27   0.1723  1.1220   139.8    34.5    20.1
    
    A. U. Tomatic                (C) Copyright 2018 MPC           M.P.E.C. 2018-Y97
    

    Read MPEC 2018-Y96 Read MPEC 2018-Y98


    MPEC number:

    Enter an MPEC number in one of the following forms:

    • 1997-B01 (the full form)
    • J97B01 (the packed version of the full form)
    • B01 (the abbreviated form)